Location: Bittkow
(50.3000°N, 19.0000°E)
Time: 13:11:20
(UTC+00:00)

Landsat 5 - Pass Details

Date: 19 September 2020
Orbit: 528 x 655 km, 98.2° (Epoch: 22 October)

Event Time Altitude Azimuth Distance (km) Brightness Sun altitude
Rises 02:58:51 0° 185° (S) 2,965 6.8 -14.4°
Reaches altitude 10° 03:01:11 10° 193° (SSW) 2,062 5.9 -14.1°
Maximum altitude 03:05:25 38° 262° (W) 993 4.1 -13.4°
Drops below altitude 10° 03:09:38 10° 332° (NNW) 2,060 6.1 -12.8°
Sets 03:11:59 0° 340° (NNW) 2,962 7.0 -12.5°
